Date String (YYYY-MM-DD hh:mm:ss) UTC,Instrument flags,Ambient pressure (hPa),Sample flow (lpm),Bypass flow (lpm),Sample temperature (°C),Ambient temperature (°C),ASC tube jacket temperature (°C),LED temperature (°C),Box temperature (°C),Sample RH (%),Span deviation,Mass concentration (μg/m³),Mass concentration (μg/m³),Mass concentration (μg/m³)
DateTimeUTC,F1_M11,P_M11,Q1_M11,Q2_M11,T1_M11,T2_M11,T3_M11,T4_M11,T5_M11,U1_M11,ZSPAN_M11,X0_M11,X2_M11,X1_M11
2022-07-23 19:00:00,,0826.5,5.00,0.00,29.0,27.4,00.0,37.7,31.0,24.7,0000.0,0011.16,0004.24,0003.29
2022-07-23 19:01:00,,0826.5,4.99,0.00,29.0,27.5,00.0,37.7,31.0,24.1,0000.0,0011.09,0004.20,0003.27
2022-07-23 19:02:00,,0826.5,4.99,0.00,29.0,26.9,00.0,37.6,30.9,23.7,0000.0,0010.81,0004.15,0003.25
2022-07-23 19:03:00,,0826.5,5.00,0.00,29.0,26.7,00.0,37.6,30.8,24.0,0000.0,0011.21,0004.13,0003.23
2022-07-23 19:04:00,,0826.5,5.02,0.00,28.9,26.8,00.0,37.6,30.8,23.7,0000.0,0012.04,0004.12,0003.22
2022-07-23 19:05:00,,0826.5,5.00,0.00,28.9,26.9,00.0,37.6,30.8,23.6,0000.0,0011.73,0004.12,0003.22
2022-07-23 19:06:00,,0826.5,4.99,0.00,28.9,27.1,00.0,37.6,30.8,23.7,0000.0,0011.40,0004.15,0003.21
2022-07-23 19:07:00,,0826.5,5.00,0.00,28.9,27.3,00.0,37.6,30.9,23.3,0000.0,0012.17,0004.12,0003.20
2022-07-23 19:08:00,,0826.5,4.99,0.00,29.0,27.3,00.0,37.6,30.9,23.7,0000.0,0012.15,0004.08,0003.19
2022-07-23 19:09:00,,0826.5,5.01,0.00,28.9,26.8,00.0,37.6,30.8,23.9,0000.0,0012.10,0004.07,0003.18
2022-07-23 19:10:00,,0826.5,4.99,0.00,28.9,26.6,00.0,37.5,30.8,23.6,0000.0,0012.07,0004.07,0003.18
2022-07-23 19:11:00,,0826.5,5.01,0.00,28.9,26.7,00.0,37.5,30.7,23.7,0000.0,0011.91,0004.06,0003.17
2022-07-23 19:12:00,,0826.4,5.01,0.00,28.8,26.8,00.0,37.5,30.7,23.9,0000.0,0011.56,0004.05,0003.16
2022-07-23 19:13:00,,0826.4,5.00,0.00,28.9,27.1,00.0,37.6,30.8,24.5,0000.0,0011.02,0004.06,0003.15
2022-07-23 19:14:00,,0826.4,5.00,0.00,28.9,27.3,00.0,37.6,30.8,24.5,0000.0,0010.58,0004.05,0003.15
2022-07-23 19:15:00,,0826.3,5.00,0.00,28.9,27.5,00.0,37.6,30.9,23.8,0000.0,0009.85,0004.04,0003.15
2022-07-23 19:16:00,,0826.3,5.01,0.00,28.9,27.1,00.0,37.5,30.9,23.7,0000.0,0009.78,0004.00,0003.15
2022-07-23 19:17:00,,0826.4,5.00,0.00,28.9,26.6,00.0,37.5,30.8,23.9,0000.0,0009.52,0003.96,0003.15
2022-07-23 19:18:00,,0826.4,4.99,0.00,28.9,26.6,00.0,37.5,30.7,23.8,0000.0,0008.90,0003.98,0003.14
2022-07-23 19:19:00,,0826.4,5.00,0.00,28.8,26.8,00.0,37.5,30.7,23.6,0000.0,0009.21,0003.98,0003.14
2022-07-23 19:20:00,,0826.4,5.01,0.00,28.8,27.0,00.0,37.5,30.7,23.5,0000.0,0009.16,0003.96,0003.14
2022-07-23 19:21:00,,0826.4,4.98,0.00,28.8,27.2,00.0,37.5,30.8,23.5,0000.0,0009.01,0003.95,0003.13
2022-07-23 19:22:00,,0826.4,5.00,0.00,28.9,27.4,00.0,37.5,30.8,23.1,0000.0,0008.60,0003.92,0003.14
2022-07-23 19:23:00,,0826.4,5.00,0.00,28.9,27.4,00.0,37.5,30.9,22.9,0000.0,0008.78,0003.94,0003.14
2022-07-23 19:24:00,,0826.4,5.00,0.00,28.9,26.8,00.0,37.5,30.8,23.1,0000.0,0008.70,0003.94,0003.15
2022-07-23 19:25:00,,0826.5,4.99,0.00,28.8,26.6,00.0,37.4,30.7,23.4,0000.0,0008.81,0003.96,0003.15
2022-07-23 19:26:00,,0826.5,4.99,0.00,28.8,26.7,00.0,37.4,30.7,23.9,0000.0,0008.92,0003.99,0003.15
2022-07-23 19:27:00,,0826.4,5.01,0.00,28.8,26.9,00.0,37.5,30.7,24.4,0000.0,0009.11,0004.01,0003.15
2022-07-23 19:28:00,,0826.5,4.99,0.00,28.8,27.1,00.0,37.5,30.7,24.6,0000.0,0009.41,0003.99,0003.14
2022-07-23 19:29:00,,0826.5,5.00,0.00,28.8,27.3,00.0,37.5,30.8,24.7,0000.0,0009.35,0003.99,0003.15
2022-07-23 19:30:00,,0826.5,5.00,0.00,28.9,27.4,00.0,37.5,30.9,24.6,0000.0,0009.01,0004.00,0003.16
2022-07-23 19:31:00,,0826.5,5.00,0.00,28.9,27.1,00.0,37.5,30.8,24.9,0000.0,0008.97,0004.00,0003.17
2022-07-23 19:32:00,,0826.5,5.01,0.00,28.8,26.6,00.0,37.4,30.7,25.7,0000.0,0009.07,0004.03,0003.19
2022-07-23 19:33:00,,0826.4,4.99,0.00,28.8,26.6,00.0,37.4,30.7,25.7,0000.0,0009.53,0004.04,0003.20
2022-07-23 19:34:00,,0826.4,4.99,0.00,28.8,26.8,00.0,37.4,30.6,26.6,0000.0,0010.34,0004.06,0003.22
2022-07-23 19:35:00,,0826.4,5.00,0.00,28.8,27.0,00.0,37.5,30.7,27.0,0000.0,0010.60,0004.11,0003.24
2022-07-23 19:36:00,,0826.4,5.00,0.00,28.8,27.2,00.0,37.5,30.7,27.0,0000.0,0010.92,0004.15,0003.26
2022-07-23 19:37:00,,0826.4,5.01,0.00,28.8,27.4,00.0,37.5,30.8,27.5,0000.0,0011.43,0004.17,0003.29
2022-07-23 19:38:00,,0826.4,5.00,0.00,28.9,27.6,00.0,37.5,30.9,27.4,0000.0,0011.38,0004.18,0003.32
2022-07-23 19:39:00,,0826.4,4.99,0.00,28.9,27.2,00.0,37.5,30.8,27.5,0000.0,0011.16,0004.20,0003.36
2022-07-23 19:40:00,,0826.4,4.99,0.00,28.8,26.7,00.0,37.4,30.7,27.3,0000.0,0012.21,0004.24,0003.38
2022-07-23 19:41:00,,0826.4,5.01,0.00,28.8,26.7,00.0,37.4,30.7,27.3,0000.0,0012.62,0004.27,0003.41
2022-07-23 19:42:00,,0826.4,5.01,0.00,28.8,26.8,00.0,37.4,30.7,26.5,0000.0,0013.98,0004.31,0003.43
2022-07-23 19:43:00,,0826.3,4.99,0.00,28.8,27.0,00.0,37.5,30.7,26.2,0000.0,0014.37,0004.32,0003.44
2022-07-23 19:44:00,,0826.2,4.99,0.00,28.8,27.2,00.0,37.5,30.7,26.1,0000.0,0014.30,0004.36,0003.45
2022-07-23 19:45:00,,0826.2,5.01,0.00,28.8,27.4,00.0,37.5,30.8,25.7,0000.0,0014.16,0004.41,0003.47
2022-07-23 19:46:00,,0826.2,4.99,0.00,28.9,27.3,00.0,37.5,30.8,26.2,0000.0,0014.19,0004.39,0003.48
2022-07-23 19:47:00,,0826.2,5.01,0.00,28.8,26.8,00.0,37.4,30.8,26.0,0000.0,0013.84,0004.36,0003.49
2022-07-23 19:48:00,,0826.2,4.99,0.00,28.8,26.6,00.0,37.4,30.7,25.6,0000.0,0013.39,0004.41,0003.49
2022-07-23 19:49:00,,0826.2,4.99,0.00,28.8,26.7,00.0,37.4,30.7,26.0,0000.0,0013.85,0004.42,0003.49
2022-07-23 19:50:00,,0826.2,5.00,0.00,28.8,26.9,00.0,37.4,30.7,26.1,0000.0,0013.95,0004.43,0003.48
2022-07-23 19:51:00,,0826.1,5.00,0.00,28.8,27.1,00.0,37.4,30.7,26.1,0000.0,0012.97,0004.44,0003.48
2022-07-23 19:52:00,,0826.2,4.99,0.00,28.8,27.3,00.0,37.5,30.8,26.0,0000.0,0012.59,0004.46,0003.48
2022-07-23 19:53:00,,0826.2,5.00,0.00,28.8,27.1,00.0,37.4,30.8,25.3,0000.0,0011.35,0004.48,0003.48
2022-07-23 19:54:00,,0826.2,4.98,0.00,28.8,26.7,00.0,37.4,30.7,25.0,0000.0,0011.19,0004.49,0003.48
2022-07-23 19:55:00,,0826.2,5.00,0.00,28.8,26.5,00.0,37.3,30.7,25.5,0000.0,0011.78,0004.51,0003.49
2022-07-23 19:56:00,,0826.1,5.00,0.00,28.7,26.6,00.0,37.4,30.6,25.6,0000.0,0011.61,0004.48,0003.48
2022-07-23 19:57:00,,0826.1,5.02,0.00,28.7,26.8,00.0,37.4,30.6,25.6,0000.0,0012.24,0004.47,0003.48
2022-07-23 19:58:00,,0826.1,5.00,0.00,28.7,27.0,00.0,37.4,30.7,25.4,0000.0,0012.52,0004.54,0003.48
2022-07-23 19:59:00,,0826.1,5.00,0.00,28.7,27.2,00.0,37.4,30.7,25.6,0000.0,0012.62,0004.53,0003.48
